Lake Charles, LA

6:00 PM CDT on August 18, 2017 (GMT -0500)
Chennault International

Weather History for KCWF - March, 2013

Change the Weather History Date:

Monday, March 25, 2013

  Actual Average Record
Temperature  
Mean Temperature 48 °F -  
Max Temperature 61 °F 69 °F 82 °F (2005)
Min Temperature 37 °F 55 °F 35 °F (2006)
Degree Days  
Heating Degree Days 16    
Moisture  
Dew Point 28 °F    
Average Humidity 56    
Maximum Humidity 75    
Minimum Humidity 19    
Precipitation  
Precipitation 0.00 in - - ()
Sea Level Pressure  
Sea Level Pressure 30.21 in    
Wind  
Wind Speed 7 mph (NNW)    
Max Wind Speed 14 mph    
Max Gust Speed 23 mph    
Visibility 10 miles    
Events      
Averages and records for this station are not official NWS values.
T = Trace of Precipitation, MM = Missing Value Source: NWS Daily Summary

Daily Weather History Graph

Daily Weather History Graph

Search for Another Location

Airport or City:

Trip Planner

Search our weather history database for the weather conditions in past years. The results will help you decide how hot, cold, wet, or windy it might be!

Date:

Astronomy

Mar. 25, 2013 Rise Set
Actual Time 7:09 AM CDT 7:27 PM CDT
Civil Twilight 6:45 AM CDT 7:51 PM CDT
Nautical Twilight 6:17 AM CDT 8:19 PM CDT
Astronomical Twilight 5:49 AM CDT 8:47 PM CDT
Moon 6:03 PM CDT (3/25) 5:47 AM CDT (3/25)
Length of Visible Light 13h 05m
Length of Day
12h 17m
Waxing Gibbous, 96% of the Moon is Illuminated
Mar 25
Waxing Gibbous
Mar 27
Full
Apr 2
Last Quarter
Apr 10
New
Apr 18
First Quarter

Hourly Weather History & Observations

Time (CDT) Temp. Windchill Dew Point Humidity Pressure Visibility Wind Dir Wind Speed Gust Speed Precip Events Conditions
12:15 AM 43.9 °F 41.3 °F 32.2 °F 63% 30.12 in 10.0 mi North 4.6 mph - N/A   Clear
12:35 AM 43.9 °F 42.3 °F 32.2 °F 63% 30.13 in 10.0 mi North 3.5 mph - N/A   Clear
12:55 AM 43.9 °F 42.3 °F 32.4 °F 64% 30.14 in 10.0 mi North 3.5 mph - N/A   Clear
1:15 AM 42.8 °F 41.1 °F 32.4 °F 67% 30.15 in 10.0 mi North 3.5 mph - N/A   Clear
1:35 AM 42.8 °F 41.1 °F 32.0 °F 66% 30.15 in 10.0 mi North 3.5 mph - N/A   Clear
1:55 AM 41.9 °F 39.0 °F 32.0 °F 68% 30.15 in 10.0 mi North 4.6 mph - N/A   Clear
2:15 AM 41.4 °F 36.8 °F 32.2 °F 70% 30.15 in 10.0 mi North 6.9 mph - N/A   Clear
2:35 AM 41.0 °F 37.1 °F 32.0 °F 70% 30.15 in 10.0 mi North 5.8 mph - N/A   Clear
2:55 AM 40.1 °F 36.9 °F 32.0 °F 73% 30.15 in 10.0 mi North 4.6 mph - N/A   Clear
3:15 AM 40.3 °F 37.1 °F 32.2 °F 73% 30.15 in 10.0 mi North 4.6 mph - N/A   Clear
3:35 AM 39.6 °F 37.4 °F 32.4 °F 75% 30.15 in 10.0 mi NNW 3.5 mph - N/A   Clear
3:55 AM 40.1 °F 36.1 °F 32.0 °F 73% 30.15 in 10.0 mi NNW 5.8 mph - N/A   Clear
4:15 AM 40.1 °F 36.1 °F 32.0 °F 73% 30.15 in 10.0 mi NNW 5.8 mph - N/A   Clear
4:35 AM 39.9 °F 35.8 °F 31.8 °F 73% 30.15 in 10.0 mi North 5.8 mph - N/A   Clear
4:55 AM 39.9 °F 35.1 °F 31.5 °F 72% 30.15 in 10.0 mi North 6.9 mph - N/A   Clear
5:15 AM 39.7 °F 34.3 °F 30.9 °F 71% 30.15 in 10.0 mi North 8.1 mph - N/A   Clear
5:35 AM 39.2 °F 32.5 °F 30.9 °F 72% 30.17 in 10.0 mi North 10.4 mph - N/A   Clear
5:55 AM 39.2 °F 32.5 °F 30.9 °F 72% 30.18 in 10.0 mi North 10.4 mph - N/A   Clear
6:00 AM 39.2 °F 32.0 °F 30.2 °F 70% 30.18 in 10.0 mi North 11.5 mph - N/A   Clear
6:15 AM 38.7 °F 30.9 °F 30.9 °F 74% 30.19 in 10.0 mi North 12.7 mph - N/A   Clear
6:35 AM 37.9 °F 32.1 °F 30.7 °F 75% 30.20 in 10.0 mi North 8.1 mph - N/A   Clear
6:45 AM 39.2 °F 32.0 °F 30.2 °F 70% 30.20 in 10.0 mi North 11.5 mph - N/A   Clear
6:55 AM 37.8 °F 30.7 °F 30.0 °F 74% 30.21 in 10.0 mi North 10.4 mph 17.3 mph N/A   Clear
7:50 AM 37.4 °F 32.1 °F 30.2 °F 75% 30.23 in 10.0 mi North 6.9 mph - N/A   Clear
8:58 AM 41.0 °F 33.5 °F 28.4 °F 61% 30.28 in 10.0 mi North 13.8 mph 20.7 mph N/A   Clear
9:50 AM 44.6 °F 39.2 °F 24.8 °F 46% 30.30 in 10.0 mi NNE 10.4 mph 17.3 mph N/A   Clear
10:45 AM 48.2 °F - 23.0 °F 37% 30.31 in 10.0 mi North 11.5 mph 17.3 mph N/A   Clear
11:45 AM 51.8 °F - 21.2 °F 30% 30.30 in 10.0 mi North 11.5 mph 16.1 mph N/A   Clear
12:45 PM 53.6 °F - 19.4 °F 26% 30.29 in 10.0 mi NNW 11.5 mph 21.9 mph N/A   Clear
1:45 PM 57.2 °F - 19.4 °F 23% 30.26 in 10.0 mi NNW 11.5 mph 23.0 mph N/A   Clear
2:45 PM 59.0 °F - 15.8 °F 19% 30.22 in 10.0 mi North 13.8 mph 23.0 mph N/A   Clear
3:50 PM 60.8 °F - 21.2 °F 22% 30.20 in 10.0 mi NNW 13.8 mph 20.7 mph N/A   Clear
4:50 PM 60.8 °F - 17.6 °F 19% 30.20 in 10.0 mi NW 13.8 mph 20.7 mph N/A   Clear
6:45 PM 57.2 °F - 19.4 °F 23% 30.21 in 10.0 mi North 6.9 mph - N/A   Clear
7:47 PM 53.6 °F - 21.2 °F 28% 30.24 in 10.0 mi North 4.6 mph - N/A   Clear
8:50 PM 51.8 °F - 24.8 °F 35% 30.27 in 10.0 mi NNW 3.5 mph - N/A   Clear
9:45 PM 48.2 °F - 28.4 °F 46% 30.29 in 10.0 mi NW 4.6 mph - N/A   Clear
11:15 PM 45.5 °F 42.5 °F 28.6 °F 52% 30.34 in 10.0 mi NNW 5.8 mph - N/A   Clear
11:35 PM 45.5 °F 41.3 °F 27.1 °F 49% 30.35 in 10.0 mi NNW 8.1 mph - N/A   Clear
11:55 PM 45.3 °F 41.1 °F 26.4 °F 48% 30.35 in 10.0 mi NNW 8.1 mph - N/A   Clear